Tracking 32138 objects as of 8-Nov-2025
HD Live streaming from Space Station
objects crossing your sky now

ITASAT-1

Track ITASAT-1 now!
10-day predictions
ITASAT-1 is classified as:


NORAD ID: 43786
Int'l Code: 2018-099AE
Perigee: 517.2 km
Apogee: 537.4 km
Inclination: 97.4 °
Period: 95.0 minutes
Semi major axis: 6898 km
RCS: Unknown
Launch date: December 3, 2018
Source: (TBD)
Launch site: AIR FORCE WESTERN TEST RANGE (AFWTR)

Uplink (MHz):
Downlink (MHz): 145.860/2400.150
Beacon (MHz):
Mode: 1k2 BPSK/14k4 BPSK
Call sign: PY0EIA
Status: Inactive

Your satellite tracking list
Your tracking list is empty




NASA's NSSDC Master Catalog

Two Line Element Set (TLE):
1 43786U 18099AE  25312.10422840  .00011257  00000-0  59955-3 0  9991
2 43786  97.4368   3.1479 0014634  47.0150 313.2307 15.15283519379385
Source of the keplerian elements: AMSAT